Regional Weather Roundup
Issued by NWS

Home | Current Version | Previous Version | Graphics & Text | Print | Product List | Glossary Off
Versions: 1 2 3 4 5 6 7 8 9 10 11 12 13 14 15 16 17 18 19 20 21 22 23 24 25 26 27 28 29 30 31 32 33 34 35 36 37 38 39 40 41 42 43 44 45 46 47 48 49 50

000
ASUS43 KMKX 230300
RWRWI

WISCONSIN REGIONAL WEATHER ROUNDUP
NATIONAL WEATHER SERVICE MILWAUKEE/SULLIVAN WI
1000 PM CDT FRI AUG 22 2014

NOTE: "FAIR" INDICATES FEW OR NO CLOUDS BELOW 12,000 FEET WITH NO
SIGNIFICANT WEATHER AND/OR OBSTRUCTIONS TO VISIBILITY.

WIZ001-002-006>008-014>016-023>028-230400-
NORTHWEST WISCONSIN

CITY           SKY/WX    TMP DP  RH WIND       PRES   REMARKS
SUPERIOR ARPT  CLOUDY    61  60  97 CALM      30.06R
ASHLAND        CLOUDY    63  61  93 CALM      30.07R
HAYWARD        CLOUDY    67  65  93 N5        30.06R
SIREN          CLOUDY    68  65  89 NE5       30.05R
RICE LAKE      CLOUDY    71  68  90 N5        30.04S
LADYSMITH      CLOUDY    72  69  91 N7        30.05R
EAU CLAIRE     NOT AVBL
MENOMONIE      PTCLDY    72  68  88 CALM      30.02S
NEW RICHMOND   CLOUDY    71  69  93 CALM      30.04R
OSCEOLA        CLOUDY    72  70  96 N5        30.05R
$$

WIZ003>005-009-010-017-018-230400-
NORTH CENTRAL WISCONSIN

CITY           SKY/WX    TMP DP  RH WIND       PRES   REMARKS
WOODRUFF       CLOUDY    72  69  91 N6        30.04R
RHINELANDER    CLOUDY    69  68  96 CALM      30.04S FOG
EAGLE RIVER    CLOUDY    69  69 100 CALM      30.03S FOG
LAND O LAKES   FOG       69  69 100 CALM      30.05R VSB 1/2
PHILLIPS       CLOUDY    67  67  98 N5        30.04R
TOMAHAWK       FOG       65  64  96 CALM      30.04R VSB 1/2
MEDFORD        CLOUDY    71  70  99 NE5       30.03R FOG
MERRILL        FOG       68  68 100 CALM      30.02R VSB 1/4
$$

WIZ029-030-035-036-043>047-230400-
CENTRAL WISCONSIN

CITY           SKY/WX    TMP DP  RH WIND       PRES   REMARKS
WAUSAU         MOCLDY    73  71  93 CALM      30.00R FOG
MOSINEE        PTCLDY    72  72 100 NE6       30.02R FOG
MARSHFIELD     CLEAR     74  71  91 NE9       30.00R FOG
STEVENS POINT  CLOUDY    74  72  92 E3        30.00R
WAUPACA        CLOUDY    76  73  91 E5        30.00R
WAUTOMA        NOT AVBL
WISC RAPIDS    MOCLDY    77  73  87 NE5       30.00R
CAMP DOUGLAS   CLEAR     72  72 100 W6        29.99R
$$

WIZ011>013-019>022-031-037>040-048>050-230400-
NORTHEAST WISCONSIN

CITY           SKY/WX    TMP DP  RH WIND       PRES   REMARKS
ANTIGO         CLOUDY    70  70  99 SE8       30.04R FOG
STURGEON BAY   CLOUDY    68  66  94 E3        30.02S
GREEN BAY      PTCLDY    71  69  93 E6        30.00R
MANITOWOC      CLOUDY    70  68  94 CALM      30.02R FOG
APPLETON       MOCLDY    72  70  94 SE8       30.00R FOG
CLINTONVILLE   MOCLDY    73  70  88 CALM      30.00R
OSHKOSH        MOCLDY    74  70  87 E6        29.99R
$$

WIZ032>034-041-042-053>061-230400-
SOUTHWEST WISCONSIN

CITY           SKY/WX    TMP DP  RH WIND       PRES   REMARKS
LA CROSSE      PTCLDY    76  73  91 N6        29.97R
SPARTA         PTCLDY    73  71  96 CALM      29.99R FOG
VIROQUA        MOCLDY    75  75 100 N5        30.01R
BOSCOBEL       MOCLDY    78  75  90 CALM      29.96R FOG     HX  81
PRAIRIE DU CHI MOCLDY    79  76  90 CALM      29.96R HX  82
PLATTEVILLE    FAIR      78  76  94 CALM      29.99S HX  81
$$

WIZ056-057-062-063-064-067-068-230400-
SOUTH CENTRAL WISCONSIN

CITY           SKY/WX    TMP DP  RH WIND       PRES   REMARKS
BARABOO/DELLS  PTCLDY    76  72  87 CALM      29.97R
LONE ROCK      NOT AVBL
WATERTOWN      CLEAR     74  72  94 SE5       29.99R
MADISON        PTCLDY    78  74  87 E10       29.97R HX  81
MIDDLETON      FAIR      76  76  99 CALM      29.97S
MONROE         CLEAR     77  73  88 S6        29.98S
JANESVILLE     CLEAR     77  73  88 CALM      29.97R
$$

WIZ051-052-058>065-066-070>072-230400-
SOUTHEAST WISCONSIN

CITY           SKY/WX    TMP DP  RH WIND       PRES   REMARKS
MILWAUKEE      FOG       70  69  97 N3        30.01R VSB 1/2
WAUKESHA       MOCLDY    70  68  94 E3        30.02R FOG
MILWAUKEE/TIMM FOG       70  66  88 NE3       30.01R VSB 1
RACINE         CLOUDY    72  70  93 N3        30.01R FOG
BURLINGTON     LGT RAIN  72  71  97 E3        30.00R
KENOSHA        CLOUDY    73  72  96 NE6       30.00R FOG
FOND DU LAC    PTCLDY    73  69  87 SE9       29.99R
SHEBOYGAN      FOG       68  67  96 CALM      30.01R VSB 1/4
WEST BEND      FOG       68  66  94 E3        30.02R VSB 1/2
JUNEAU         CLEAR     73  45  36 E7        30.01R
$$

LSZ147-162-230400-
LAKE SUPERIOR

STATION/POSITION TIME  TEMP    WIND        PRES    WAVE
                       AIR SEA DIR/SP/G            HT/PER
                 (UTC) (F)     (DEG/KT/KT) (MB)    (FT/S)
W MID LAKE BUOY  0150   58 59   20/ 12/ 14 1016.8R   2/ 4
DEVILS ISLAND    0200   61      50/  7/  8 1017.4R
PORT WING        0200   61     350/  6/  7 1017.6
SAXON HARBOR     0200   62        CALM     1017.3R
$$

LMZ867-665-643>646-230400-
LAKE MICHIGAN

STATION/POSITION TIME  TEMP    WIND        PRES    WAVE
                       AIR SEA DIR/SP/G            HT/PER
                 (UTC) (F)     (DEG/KT/KT) (MB)    (FT/S)
N MID LAKE BUOY  0150   68 66   60/  6/  6 1015.7R   0
NORTHPORT PIER   0200   67     120/  3/  4 1016.3R
SISTER BAY       0211   68     120/  5/  7   N/A
ALGOMA LAKESHORE 0223           50/  3/  4   N/A
KEWAUNEE LAKESHO 0200   67      40/  2/  2 1015.1R
SHEBOYGAN LAKESH 0200   67 65   30/  2/  2 1015.9R
ATWATER BUOY     0200   69      90/  4/  4 1016.6R
MILWAUKEE LAKESH 0200   69      90/  3/  4   N/A
S MID LAKE BUOY  0150   71 71   20/  4/  4 1014.9R   0
KENOSHA   LAKESH 0200   72      CALM  /  1 1014.9R
$$

TC  - TEMPERATURE IN CELSIUS
VSB - VISIBILITY IN STATUTE MILES
WCI - WIND CHILL INDEX
HX  - HEAT INDEX




USA.gov is the U.S. government's official web portal to all federal, state and local government web resources and services.